Regional Weather Roundup
Issued by NWS

Home | Current Version | Previous Version | Graphics & Text | Print | Product List | Glossary On
Versions: 1 2 3 4 5 6 7 8 9 10 11 12 13 14 15 16 17 18 19 20 21 22 23 24 25 26 27 28 29 30 31 32 33 34 35 36 37 38 39 40 41 42 43 44 45 46 47 48 49 50
000
ASUS43 KBIS 230720
RWRND

NORTH DAKOTA REGIONAL WEATHER ROUNDUP
NATIONAL WEATHER SERVICE BISMARCK ND
200 AM CDT TUE SEP 23 2014

NOTE: "FAIR" INDICATES FEW OR NO CLOUDS BELOW 12,000 FEET WITH NO
SIGNIFICANT WEATHER AND/OR OBSTRUCTIONS TO VISIBILITY.


NDZ001>003-009>011-017-230800-
NORTHWEST NORTH DAKOTA

CITY           SKY/WX    TMP DP  RH WIND       PRES   REMARKS
WILLISTON      CLEAR     55  47  74 N5        29.86F
MINOT          CLEAR     54  47  77 E7        29.90F
MINOT AFB      CLEAR     52  49  90 SE6       29.90S
$$

NDZ018>021-031>035-040>046-230800-
SOUTHWEST NORTH DAKOTA

CITY           SKY/WX    TMP DP  RH WIND       PRES   REMARKS
BISMARCK       CLEAR     56  51  84 SE9       29.93F
DICKINSON      CLEAR     55  49  80 SE10      29.88R
GARRISON         N/A     57  51  80 SE6       29.91S
HETTINGER ARPT PTCLDY    53  49  86 CALM      29.90F
$$

NDZ004>008-012>016-024-026-027-054-230800-
NORTHEAST NORTH DAKOTA

CITY           SKY/WX    TMP DP  RH WIND       PRES   REMARKS
GRAND FORKS    CLEAR     53  48  83 S8        30.03S
GRND FRKS AFB  CLEAR     51  50  94 SE6       30.03S
DEVILS LAKE    CLEAR     57  46  67 S5        29.98R
$$

NDZ022-023-025-028>030-036>039-047>053-230800-
SOUTHEAST NORTH DAKOTA

CITY           SKY/WX    TMP DP  RH WIND       PRES   REMARKS
FARGO          CLEAR     60  48  64 SE10      30.05S
JAMESTOWN      CLEAR     57  49  74 S9        29.99F
$$



USA.gov is the U.S. government's official web portal to all federal, state and local government web resources and services.